TimePDT,TemperatureF,Dew PointF,Humidity,Sea Level PressureIn,VisibilityMPH,Wind Direction,Wind SpeedMPH,Gust SpeedMPH,PrecipitationIn,Events,Conditions,WindDirDegrees,DateUTC
12:56 AM,73.0,61.0,66,29.92,10.0,South,4.6,-,N/A,,Clear,180,2013-07-01 07:56:00
1:56 AM,72.0,61.0,68,29.93,10.0,ESE,3.5,-,N/A,,Clear,110,2013-07-01 08:56:00
2:56 AM,71.1,61.0,70,29.93,10.0,SE,4.6,-,N/A,,Clear,140,2013-07-01 09:56:00
3:56 AM,66.9,60.1,79,29.93,10.0,SSE,3.5,-,N/A,,Clear,160,2013-07-01 10:56:00
4:56 AM,66.9,59.0,76,29.94,10.0,SSE,5.8,-,N/A,,Clear,150,2013-07-01 11:56:00
5:56 AM,68.0,61.0,78,29.95,10.0,Calm,Calm,-,N/A,,Clear,0,2013-07-01 12:56:00
6:56 AM,71.1,61.0,70,29.95,10.0,Calm,Calm,-,N/A,,Clear,0,2013-07-01 13:56:00
7:56 AM,75.0,62.1,64,29.95,10.0,East,6.9,-,N/A,,Clear,90,2013-07-01 14:56:00
8:56 AM,79.0,61.0,54,29.94,10.0,Calm,Calm,-,N/A,,Clear,0,2013-07-01 15:56:00
9:56 AM,82.9,61.0,47,29.92,10.0,Calm,Calm,-,N/A,,Clear,0,2013-07-01 16:56:00
10:56 AM,89.1,63.0,42,29.91,10.0,Calm,Calm,-,N/A,,Clear,0,2013-07-01 17:56:00
11:56 AM,91.0,63.0,39,29.89,10.0,NNW,6.9,-,N/A,,Clear,330,2013-07-01 18:56:00
12:56 PM,95.0,64.0,36,29.88,10.0,Calm,Calm,-,N/A,,Clear,0,2013-07-01 19:56:00
1:56 PM,99.0,64.0,32,29.85,10.0,East,4.6,-,N/A,,Clear,80,2013-07-01 20:56:00
2:56 PM,100.9,62.1,28,29.83,10.0,Calm,Calm,-,N/A,,Clear,0,2013-07-01 21:56:00
3:56 PM,106.0,61.0,23,29.81,10.0,NNE,11.5,-,N/A,,Clear,20,2013-07-01 22:56:00
4:56 PM,106.0,57.9,21,29.79,10.0,North,5.8,-,N/A,,Clear,360,2013-07-01 23:56:00
5:56 PM,105.1,63.0,25,29.78,10.0,North,6.9,-,N/A,,Clear,360,2013-07-02 00:56:00
6:56 PM,100.9,66.0,32,29.78,10.0,NNW,6.9,-,N/A,,Clear,330,2013-07-02 01:56:00
7:56 PM,96.1,70.0,43,29.79,10.0,NW,5.8,-,N/A,,Clear,310,2013-07-02 02:56:00
8:56 PM,91.9,69.1,47,29.80,10.0,West,4.6,-,N/A,,Clear,280,2013-07-02 03:56:00
9:56 PM,90.0,69.1,50,29.83,10.0,SW,6.9,-,N/A,,Clear,230,2013-07-02 04:56:00
10:56 PM,88.0,64.9,46,29.83,10.0,SW,6.9,-,N/A,,Clear,220,2013-07-02 05:56:00
11:56 PM,84.9,64.0,49,29.85,10.0,SSW,6.9,-,N/A,,Clear,200,2013-07-02 06:56:00